Regional Weather Roundup
Issued by NWS Newport/Morehead, NC

Current Version | Previous Version | Graphics & Text | Print | Product List | Glossary Off
Versions: 1 2 3 4 5 6 7 8 9 10 11 12 13 14 15 16 17 18 19 20 21 22 23 24 25 26 27 28 29 30 31 32 33 34 35 36 37 38 39 40 41 42 43 44 45 46 47 48 49 50

000
ASUS42 KMHX 230510
RWRMHX
WEATHER ROUNDUP FOR EASTERN NORTH CAROLINA
NATIONAL WEATHER SERVICE NEWPORT/MOREHEAD CITY NC
100 AM EDT TUE SEP 23 2014

NOTE: "FAIR" INDICATES FEW OR NO CLOUDS BELOW 12,000 FEET
WITH NO SIGNIFICANT WEATHER AND/OR OBSTRUCTIONS TO VISIBILITY

NCZ015>017-031-032-045>047-102-103-230600-
NORTH COAST

CITY           SKY/WX    TMP DP  RH WIND       PRES   REMARKS
EDENTON        MOCLDY    64  58  83 NE3       30.15S
ELIZABETH CITY MOCLDY    67  59  75 N10       30.16R
KITTY HAWK     MOCLDY    70  57  63 N7        30.13S
MANTEO         MOCLDY    69  58  67 NE10G16   30.14S

$$

NCZ045>047-081-094-103-104-230600-
CENTRAL COAST

CITY           SKY/WX    TMP DP  RH WIND       PRES   REMARKS
FRISCO         MOCLDY    69  59  70 NE7G17    30.12S
SWANQUARTER      N/A     64 N/A N/A NE1       30.09S

$$

NCZ095-097-098-100-101-230600-
SOUTHERN COAST

CITY           SKY/WX    TMP DP  RH WIND       PRES   REMARKS
BEAUFORT       MOCLDY    71  63  75 NE6       30.11S
CEDAR ISLAND     N/A     73 N/A N/A NE13G18   30.15S
JACKSONVILLE   CLOUDY    68  60  75 N5        30.11R
NEWPORT        NOT AVBL
PINEY ISLAND   CLOUDY    74  62  66 NE13      30.11S
WILMINGTON     MOCLDY    67  65  93 N5        30.11R


$$

NCZ011>013-027>030-043-044-078>080-089-090>093-098-230600-
COASTAL PLAIN

CITY           SKY/WX    TMP DP  RH WIND       PRES   REMARKS
AHOSKIE        CLOUDY    62  57  83 N3        30.17R
CLINTON        CLOUDY    67  59  75 CALM      30.14R
ELIZABETHTOWN  DRIZZLE   67  59  75 CALM      30.12R
GOLDSBORO      CLOUDY    66  63  90 N1        30.11S
GREENVILLE     CLOUDY    64  59  82 NE3       30.15S
HAVELOCK       MOCLDY    68  64  87 E3        30.12S
KENANSVILLE    NOT AVBL
KINSTON        CLOUDY    66  58  73 N3        30.13S
NEW BERN       CLOUDY    69  62  78 NE5       30.13R
RICHLANDS      CLOUDY    66  55  68 NE7       30.12R
ROANOKE RAPIDS NOT AVBL
ROCKY MOUNT    CLOUDY    64  59  83 N3        30.15R
WASHINGTON     CLOUDY    64  59  84 CALM      30.14S
WHITEVILLE     CLOUDY    66  61  84 CALM      30.12R

$$

AMZ130-135-150-152-154-156-158-170-250-252-270-ANZ085-086-088-633-658-670-230600-
MARINE OBSERVATIONS

STATION/POSITION TIME  TEMP    WIND        PRES    WAVE   SWELL
                       AIR SEA DIR/SP/G            HT/PER HT/PER
                 (UTC) (F)     (DEG/KT/KT) (MB)    (FT/S) (FT/S)
CHESAPEAKE LIGHT 0400   70      20/ 18/ 21 1021.5
BUOY 44014       0500   71 76  360/ 16/ 19 1020.5    4/ 8   2/ 8
DUCK             0500   71 75   30/ 16/ 19 1020.1
2E DUCK          0500                        N/A     3/ 8
OREGON INLET     0500   71 76   30/ 14/ 17 1020.3
BUOY 44095       0500      74                N/A     3/ 8
20E OREGON INLET NOT AVBL
HATTERAS CG      NOT AVBL
DIAMOND BUOY     0500   74      10/ 17/ 21 1019.4    4/ 8   2/ 8
CAPE LOOKOUT     0400   73      20/ 10/ 11 1019.2
BEAUFORT LAB     0500   71 76   60/  3/  7 1019.0
30 SE NEW RIVER  0500   76 82   50/ 14/ 17 1018.5    3/ 7   2/ 7
5 SE WRIGHTSVILL 0400   71 79  360/ 10/ 12   N/A
BUOY 41002       0447   79 81  130/  4/  6 1019.2    3/ 6   3/ 6
BUOY 41004       0500   78 82   40/ 14/ 16 1017.5    3/ 4   2/ 7

$$



USA.gov is the U.S. government's official web portal to all federal, state and local government web resources and services.